Home   Weather   Southend-on-Sea   Past weeks

Flag for United Kingdom Past Weather in Southend-on-Sea, England, United Kingdom — Yesterday and Last 2 Weeks

Now
72 °F

Passing clouds.


Feels Like: 76 °F
Forecast: 59 / 69 °F
Wind: 17 mph from Southwest

Location: Southend Airport-On-Sea

Current Time: Aug 17, 2017 at 6:52:23 pm

Latest Report: Aug 17, 2017 at 6:20 pm


Visibility: N/A

Pressure: 29.86 "Hg

Humidity: 61%

Dew Point: 57 °F

Location of Southend-on-SeaLocation

Past Weather in Southend-on-Sea — Graph

°F

Southend-on-Sea Temperature Yesterday

Maximum temperature yesterday: 73 °F (at 2:50 pm)
Minimum temperature yesterday: 54 °F (at 4:50 am)
Average temperature yesterday: 65 °F

High & Low Weather Summary for the Past Weeks

 TemperatureHumidityPressure
High75 °F (Aug 17, 2:50 pm)94% (Aug 8, 6:50 am)30.21 "Hg (Aug 8, 6:50 am)
Low50 °F (Aug 6, 5:20 am)33% (Aug 6, 4:50 pm)29.68 "Hg (Aug 3, 2:50 am)
Average63 °F67%29.99 "Hg
* Reported Aug 2 5:20 pm — Aug 17 5:50 pm, Southend-on-Sea. Weather by CustomWeather, © 2017

Note: Actual official high and low records may vary slightly from our data, if they occured in-between our weather recording intervals... More about our weather records

Advertising

Southend-on-Sea Weather History for the Previous 24 Hours

Scroll right to see more
 ConditionsComfort  
Time TempWeatherWind HumidityBarometerVisibility
5:50 pm
Thu, Aug 17
73 °FPassing clouds.20 mph57%29.86 "HgN/A
5:20 pm73 °FPassing clouds.18 mph57%29.86 "HgN/A
4:50 pm75 °FPassing clouds.20 mph54%29.83 "HgN/A
4:20 pm75 °FPassing clouds.18 mph54%29.83 "HgN/A
3:50 pm75 °FPassing clouds.18 mph54%29.83 "HgN/A
3:20 pm75 °FPassing clouds.18 mph54%29.83 "HgN/A
2:50 pm75 °FPassing clouds.17 mph57%29.83 "HgN/A
1:50 pm70 °FScattered clouds.18 mph57%29.83 "HgN/A
1:20 pm73 °FScattered clouds.20 mph57%29.83 "HgN/A
12:50 pm73 °FPassing clouds.20 mph69%29.83 "HgN/A
12:20 pm73 °FPassing clouds.21 mph69%29.83 "HgN/A
11:50 am70 °FPassing clouds.20 mph78%29.86 "HgN/A
11:20 am66 °FPartly sunny.16 mph83%29.86 "HgN/A
10:50 am68 °FPartly sunny.14 mph83%29.83 "HgN/A
10:20 am68 °FPartly sunny.14 mph83%29.83 "HgN/A
9:50 am66 °FScattered clouds.14 mph88%29.83 "HgN/A
9:20 am66 °FPartly sunny.13 mph88%29.83 "HgN/A
8:50 am64 °FPartly sunny.12 mph88%29.83 "HgN/A
7:50 am64 °FLight rain. Partly sunny.13 mph88%29.86 "HgN/A
7:20 am64 °FPartly sunny.12 mph83%29.83 "HgN/A
6:50 am64 °FLight rain. Partly sunny.12 mph83%29.83 "HgN/A
6:20 am63 °FLight rain. Partly sunny.13 mph88%29.86 "HgN/A
5:50 am63 °FLight rain. Scattered clouds.10 mph88%29.86 "HgN/A
5:20 am63 °FLight rain. Passing clouds.13 mph83%29.86 "HgN/A
4:20 am63 °FLight rain. Passing clouds.9 mph83%29.89 "HgN/A
3:50 am63 °FLight rain. Passing clouds.12 mph83%29.89 "HgN/A
2:50 am61 °FRain. Passing clouds.14 mph83%29.92 "Hg4 mi
2:20 am63 °FLight rain. Passing clouds.14 mph73%29.92 "HgN/A
12:50 am63 °FClear.8 mph68%29.95 "Hg10 mi
12:20 am63 °FClear.7 mph64%29.98 "Hg10 mi
11:50 pm
Wed, Aug 16
63 °FClear.9 mph64%29.98 "Hg10 mi
11:20 pm61 °FClear.10 mph68%30.01 "Hg10 mi
10:50 pm63 °FClear.10 mph64%30.01 "Hg10 mi
10:20 pm63 °FClear.10 mph64%30.01 "Hg10 mi
9:50 pm64 °FClear.10 mph64%30.04 "Hg10 mi
9:20 pm64 °FClear.10 mph60%30.04 "Hg10 mi
8:50 pm64 °FClear.10 mph56%30.04 "Hg10 mi
7:50 pm66 °FSunny.10 mph52%30.04 "Hg10 mi
7:20 pm66 °FSunny.15 mph52%30.04 "Hg10 mi
6:50 pm70 °FSunny.15 mph46%30.04 "Hg10 mi
6:20 pm70 °FSunny.15 mph46%30.04 "Hg10 mi
Weather by CustomWeather, © 2017

See weather overviewHow to use our weather pages